Regional Weather Roundup
Issued by NWS

Current Version | Previous Version | Text Only | Print | Product List | Glossary On
Versions: 1 2 3 4 5 6 7 8 9 10 11 12 13 14 15 16 17 18 19 20 21 22 23 24 25 26 27 28 29 30 31 32 33 34 35 36 37 38 39 40 41 42 43 44 45 46 47 48 49 50
000
ASUS43 KMKX 200900
RWRWI

WISCONSIN REGIONAL WEATHER ROUNDUP
NATIONAL WEATHER SERVICE MILWAUKEE/SULLIVAN WI
300 AM CST MON FEB 20 2017

NOTE: "FAIR" INDICATES FEW OR NO CLOUDS BELOW 12,000 FEET WITH NO
SIGNIFICANT WEATHER AND/OR OBSTRUCTIONS TO VISIBILITY.

WIZ001-002-006>008-014>016-023>028-201000-
NORTHWEST WISCONSIN

CITY           SKY/WX    TMP DP  RH WIND       PRES   REMARKS
SUPERIOR ARPT  MOCLDY    35  33  94 E10       29.96F WCI  27
ASHLAND        CLOUDY    34  31  88 E5        29.98S WCI  30
HAYWARD        CLOUDY    49  34  56 SE10G21   29.95F
SIREN          CLOUDY    49  36  60 SE7       29.89F
CUMBERLAND     PTCLDY    43  32  65 SE6       29.92F
RICE LAKE      PTCLDY    45  35  67 SE12      29.94F
CHETEK         PTCLDY    44  35  70 E9        29.94F
LADYSMITH      CLOUDY    48  35  60 SE13      29.99S
EAU CLAIRE     NOT AVBL
MENOMONIE      PTCLDY    43  36  74 E8        29.93S
NEW RICHMOND   CLOUDY    46  37  69 SE7       29.89F
OSCEOLA        PTCLDY    48  38  68 SE13      29.89F
$$

WIZ003>005-009-010-017-018-201000-
NORTH CENTRAL WISCONSIN

CITY           SKY/WX    TMP DP  RH WIND       PRES   REMARKS
MANITOWISH WTR PTCLDY    39  31  75 SE8       30.04F WCI  33
ARBOR VITAE    CLOUDY    40  31  71 SE9       30.06S WCI  34
WOODRUFF       CLOUDY    40  31  71 SE9       30.06S WCI  34
RHINELANDER    CLOUDY    39  31  72 E9        30.08S WCI  33
EAGLE RIVER    PTCLDY    37  28  72 SE5       30.08S WCI  33
LAND O LAKES   CLOUDY    38  30  73 SE8       30.10S WCI  32
PHILLIPS       CLOUDY    41  33  72 SE6       30.01F
TOMAHAWK       CLOUDY    38  29  71 SE5       30.06F WCI  35
MEDFORD        CLOUDY    39  32  74 SE9       30.03S WCI  33
MERRILL        NOT AVBL
$$

WIZ029-030-035-036-043>047-201000-
CENTRAL WISCONSIN

CITY           SKY/WX    TMP DP  RH WIND       PRES   REMARKS
WAUSAU         CLOUDY    37  30  75 E8        30.07S WCI  31
MOSINEE        CLOUDY    37  30  75 E7        30.07F WCI  32
MARSHFIELD     CLOUDY    39  31  72 SE7       30.03S WCI  34
STEVENS POINT  CLOUDY    36  29  78 E5        30.08F WCI  32
WAUPACA        CLOUDY    36  31  82 CALM      30.10F
WAUTOMA        CLOUDY    36  30  79 NE3       30.10S
WISC RAPIDS    CLOUDY    40  32  73 SE9       30.07S WCI  34
CAMP DOUGLAS   NOT AVBL
$$

WIZ011>013-019>022-031-037>040-048>050-201000-
NORTHEAST WISCONSIN

CITY           SKY/WX    TMP DP  RH WIND       PRES   REMARKS
ANTIGO         CLOUDY    35  30  82 SE13      30.10S WCI  26
SHAWANO        CLOUDY    34  31  89 NE6       30.12F WCI  29
OCONTO         PTCLDY    30  28  93 CALM      30.14F
STURGEON BAY   PTCLDY    37  33  85 SE10      30.15F WCI  30
GREEN BAY      CLOUDY    35  32  88 NE5       30.13S WCI  31
MANITOWOC      NOT AVBL
APPLETON       PTCLDY    37  28  70 E6        30.09F WCI  33
CLINTONVILLE   CLOUDY    32  30  93 NE3       30.11F
OSHKOSH        CLOUDY    38  29  70 SE6       30.09F WCI  33
$$

WIZ032>034-041-042-053>061-201000-
SOUTHWEST WISCONSIN

CITY           SKY/WX    TMP DP  RH WIND       PRES   REMARKS
LA CROSSE      PTCLDY    50  40  68 S7        29.97S
SPARTA         CLOUDY    43  37  78 N3        30.01S
VIROQUA        MOCLDY    48  39  71 SE10      30.00S
BOSCOBEL       CLOUDY    48  38  68 NE5       30.01F
PRAIRIE DU CHI CLOUDY    51  40  66 E6        29.99S
PLATTEVILLE    CLOUDY    43  40  90 E10       30.02F
$$

WIZ056-057-062-063-064-067-068-201000-
SOUTH CENTRAL WISCONSIN

CITY           SKY/WX    TMP DP  RH WIND       PRES   REMARKS
REEDSBURG      CLOUDY    43  37  79 E6        30.04S
BARABOO/DELLS  CLOUDY    42  35  74 CALM      30.06R
LONE ROCK      NOT AVBL
MINERAL POINT  PTCLDY    50  41  71 SE9       30.03F
MADISON        CLOUDY    45  36  70 SE7       30.07R
MIDDLETON      CLOUDY    44  37  75 E5        30.07F
WATERTOWN      PTCLDY    42  31  64 E8        30.08F
MONROE         CLOUDY    45  39  81 E8        30.06F
JANESVILLE     PTCLDY    41  37  87 SE5       30.08R
$$

WIZ051-052-058>065-066-070>072-201000-
SOUTHEAST WISCONSIN

CITY           SKY/WX    TMP DP  RH WIND       PRES   REMARKS
MILWAUKEE      CLOUDY    38  32  79 CALM      30.13F
WAUKESHA         N/A     32  30  93 CALM      30.13S
MILWAUKEE/TIMM PTCLDY    34  30  86 CALM      30.13F
RACINE         CLOUDY    37  32  82 SE3       30.15S
KENOSHA        CLOUDY    41  31  67 E7        30.11F
FOND DU LAC    PTCLDY    41  29  62 SE8       30.10F
SHEBOYGAN      MIX PCPN  30  28  92 NE3       30.14S
WEST BEND      PTCLDY    32  30  93 CALM      30.12F
JUNEAU         CLOUDY    42  29  59 E10       30.10S
$$

LSZ147-162-201000-
LAKE SUPERIOR

STATION/POSITION TIME  TEMP    WIND        PRES    WAVE
                       AIR SEA DIR/SP/G            HT/PER
                 (UTC) (F)     (DEG/KT/KT) (MB)    (FT/S)
DEVILS ISLAND    0800   36      70/  9/ 10 1016.4S
PORT WING        0840   35      70/  4/  8 1014.9F
SAXON HARBOR     0840          180/  6/ 13 1014.9R
$$

LMZ867-665-643>646-201000-
LAKE MICHIGAN

STATION/POSITION TIME  TEMP    WIND        PRES    WAVE
                       AIR SEA DIR/SP/G            HT/PER
                 (UTC) (F)     (DEG/KT/KT) (MB)    (FT/S)
CHAMBERS ISLAND  0840   34      50/  3/  3 1021.0S
NORTHPORT PIER   0840   35     140/  4/  5 1021.7S
SISTER BAY       0820   38     120/ 10/ 14   N/A
ALGOMA LAKESHORE 0840           80/  5/  6   N/A
KEWAUNEE LAKESHO 0830   37      60/  1/  3 1020.4F
SHEBOYGAN LAKESH 0800   36      30/  3/  4 1021.2S
PORT WASHINGTON  0840   37      50/  2/  2 1021.3F
MILWAUKEE LAKESH 0830   39      30/  5/  5   N/A
KENOSHA   LAKESH 0800   36      50/  3/  4 1020.3
$$

TC  - TEMPERATURE IN CELSIUS
VSB - VISIBILITY IN STATUTE MILES
WCI - WIND CHILL INDEX
HX  - HEAT INDEX




USA.gov is the U.S. government's official web portal to all federal, state and local government web resources and services.